QPF
0.00 0.00 0.00 0.00 0.00 0.00 0.00 0.00 0.00 0.00 0.00 0.00 0.00 0.00 0.00 0.00 0.01 0.02 0.00 0.00 0.00 0.00 0.00 0.01 0.01 0.01 0.01 0.01 0.01 0.01 0.01 0.01 0.01 0.01 0.02 0.02 0.02 0.02 0.02 0.03 0.02 0.03 0.02 0.02 0.02 0.02 0.02 0.02 0.03
0.00 0.00 0.00 0.00 0.00 0.00 0.00 0.00 0.00 0.00 0.00 0.00 0.00 0.00 0.00 0.00 0.00 0.00 0.00 0.00 0.00 0.00 0.00 0.01 0.01 0.01 0.01 0.01 0.01 0.01 0.01 0.01 0.01 0.01 0.01 0.01 0.01 0.01 0.02 0.02 0.02 0.02 0.02 0.02 0.02 0.03 0.03 0.04 0.02
0.00 0.00 0.00 0.00 0.00 0.00 0.00 0.00 0.00 0.00 0.01 0.00 0.01 0.01 0.00 0.00 0.00 0.00 0.00 0.00 0.00 0.00 0.00 0.01 0.01 0.01 0.00 0.00 0.01 0.01 0.01 0.01 0.01 0.01 0.01 0.01 0.01 0.01 0.01 0.02 0.02 0.01 0.02 0.02 0.02 0.02 0.02 0.02 0.02
0.00 0.00 0.00 0.00 0.00 0.00 0.00 0.00 0.00 0.00 0.00 0.01 0.02 0.02 0.00 0.00 0.00 0.00 0.00 0.00 0.00 0.00 0.01 0.01 0.01 0.01 0.00 0.01 0.01 0.01 0.01 0.01 0.01 0.01 0.01 0.02 0.01 0.01 0.01 0.01 0.01 0.02 0.02 0.03 0.04 0.03 0.02 0.02 0.02
0.00 0.00 0.00 0.00 0.00 0.00 0.00 0.00 0.00 0.00 0.00 0.00 0.01 0.00 0.00 0.00 0.00 0.00 0.00 0.00 0.00 0.00 0.01 0.01 0.01 0.01 0.01 0.01 0.01 0.01 0.01 0.01 0.01 0.01 0.02 0.02 0.02 0.01 0.01 0.01 0.01 0.01 0.02 0.02 0.03 0.02 0.03 0.03 0.03
0.00 0.00 0.00 0.00 0.00 0.00 0.00 0.00 0.00 0.00 0.00 0.00 0.00 0.00 0.01 0.01 0.00 0.00 0.00 0.00 0.00 0.00 0.01 0.01 0.02 0.01 0.01 0.01 0.01 0.02 0.02 0.02 0.02 0.02 0.02 0.02 0.02 0.01 0.02 0.01 0.01 0.01 0.02 0.02 0.02 0.03 0.03 0.04 0.03
0.00 0.00 0.00 0.00 0.00 0.00 0.00 0.00 0.00 0.00 0.00 0.00 0.00 0.00 0.01 0.01 0.01 0.00 0.00 0.00 0.00 0.00 0.01 0.01 0.02 0.02 0.01 0.01 0.02 0.02 0.02 0.02 0.02 0.02 0.03 0.02 0.01 0.01 0.01 0.01 0.01 0.01 0.02 0.03 0.04 0.04 0.04 0.05 0.04
0.00 0.00 0.00 0.00 0.00 0.00 0.00 0.00 0.00 0.00 0.00 0.00 0.00 0.01 0.00 0.01 0.00 0.00 0.00 0.01 0.02 0.03 0.03 0.02 0.01 0.02 0.02 0.01 0.01 0.02 0.02 0.02 0.02 0.02 0.02 0.03 0.02 0.01 0.01 0.01 0.01 0.01 0.01 0.02 0.03 0.04 0.04 0.04 0.04
0.00 0.00 0.00 0.00 0.00 0.00 0.00 0.00 0.00 0.00 0.00 0.00 0.00 0.00 0.00 0.00 0.00 0.01 0.01 0.01 0.02 0.03 0.03 0.02 0.01 0.01 0.02 0.01 0.01 0.02 0.02 0.02 0.02 0.03 0.03 0.04 0.04 0.02 0.01 0.01 0.01 0.01 0.01 0.02 0.02 0.03 0.03 0.04 0.04
0.00 0.00 0.00 0.00 0.00 0.00 0.00 0.00 0.00 0.00 0.00 0.00 0.00 0.00 0.00 0.00 0.00 0.00 0.01 0.01 0.01 0.02 0.02 0.02 0.02 0.02 0.01 0.01 0.03 0.04 0.04 0.03 0.04 0.04 0.04 0.05 0.04 0.03 0.01 0.02 0.02 0.02 0.02 0.02 0.02 0.02 0.02 0.02 0.03
0.00 0.00 0.00 0.00 0.00 0.00 0.00 0.00 0.00 0.00 0.00 0.00 0.00 0.00 0.00 0.00 0.00 0.00 0.00 0.01 0.01 0.02 0.02 0.02 0.02 0.02 0.02 0.02 0.02 0.03 0.04 0.03 0.03 0.03 0.03 0.03 0.02 0.01 0.01 0.03 0.04 0.04 0.03 0.03 0.02 0.02 0.02 0.02 0.04
0.00 0.00 0.00 0.00 0.00 0.00 0.00 0.00 0.00 0.00 0.00 0.00 0.00 0.00 0.00 0.00 0.00 0.00 0.00 0.00 0.01 0.01 0.02 0.02 0.02 0.03 0.02 0.02 0.02 0.02 0.02 0.02 0.02 0.02 0.01 0.01 0.02 0.02 0.02 0.03 0.03 0.03 0.05 0.06 0.03 0.04 0.04 0.03 0.03
0.00 0.00 0.00 0.00 0.00 0.00 0.00 0.00 0.00 0.00 0.00 0.00 0.00 0.00 0.00 0.00 0.00 0.00 0.01 0.00 0.01 0.02 0.03 0.02 0.02 0.02 0.02 0.03 0.03 0.02 0.02 0.01 0.01 0.01 0.01 0.02 0.02 0.02 0.02 0.02 0.02 0.02 0.03 0.03 0.04 0.04 0.03 0.04 0.03
0.00 0.00 0.00 0.00 0.00 0.00 0.00 0.00 0.00 0.00 0.00 0.00 0.00 0.00 0.00 0.00 0.00 0.00 0.01 0.01 0.01 0.01 0.02 0.02 0.03 0.03 0.03 0.03 0.04 0.04 0.03 0.02 0.01 0.01 0.02 0.02 0.02 0.02 0.02 0.02 0.02 0.02 0.03 0.03 0.02 0.03 0.04 0.04 0.05
0.00 0.00 0.00 0.00 0.00 0.00 0.00 0.00 0.00 0.00 0.00 0.00 0.00 0.00 0.00 0.00 0.01 0.02 0.02 0.02 0.02 0.03 0.02 0.03 0.04 0.04 0.03 0.02 0.03 0.03 0.03 0.02 0.01 0.02 0.02 0.02 0.03 0.03 0.03 0.03 0.03 0.03 0.04 0.04 0.04 0.04 0.03 0.04 0.05
0.00 0.00 0.00 0.00 0.00 0.00 0.00 0.00 0.00 0.00 0.00 0.00 0.00 0.00 0.00 0.01 0.02 0.03 0.03 0.03 0.03 0.04 0.03 0.04 0.03 0.03 0.03 0.02 0.03 0.02 0.03 0.03 0.02 0.02 0.02 0.02 0.03 0.04 0.05 0.04 0.03 0.03 0.03 0.03 0.05 0.04 0.05 0.07 0.09
0.00 0.00 0.00 0.00 0.00 0.00 0.00 0.00 0.00 0.00 0.00 0.00 0.00 0.00 0.00 0.00 0.01 0.02 0.02 0.03 0.03 0.02 0.03 0.03 0.03 0.02 0.02 0.02 0.02 0.03 0.04 0.05 0.04 0.03 0.03 0.03 0.02 0.04 0.04 0.03 0.04 0.03 0.02 0.02 0.02 0.04 0.07 0.10 0.10
0.00 0.00 0.00 0.00 0.00 0.00 0.00 0.00 0.00 0.00 0.00 0.00 0.00 0.00 0.00 0.00 0.01 0.02 0.02 0.03 0.03 0.03 0.03 0.03 0.03 0.03 0.03 0.03 0.03 0.05 0.05 0.06 0.05 0.04 0.03 0.03 0.03 0.04 0.03 0.03 0.04 0.03 0.04 0.05 0.05 0.07 0.09 0.10 0.09
0.00 0.00 0.00 0.00 0.00 0.00 0.00 0.00 0.00 0.00 0.00 0.00 0.00 0.00 0.00 0.00 0.00 0.01 0.01 0.01 0.02 0.02 0.03 0.03 0.03 0.03 0.03 0.05 0.05 0.05 0.04 0.05 0.05 0.04 0.04 0.05 0.06 0.07 0.05 0.05 0.06 0.05 0.06 0.08 0.07 0.07 0.07 0.07 0.07
0.00 0.00 0.00 0.00 0.00 0.00 0.00 0.00 0.00 0.00 0.00 0.00 0.00 0.00 0.00 0.00 0.00 0.01 0.01 0.01 0.01 0.01 0.02 0.02 0.04 0.04 0.03 0.04 0.07 0.07 0.07 0.06 0.06 0.06 0.05 0.06 0.06 0.08 0.07 0.07 0.06 0.06 0.09 0.08 0.07 0.08 0.08 0.05 0.05
0.00 0.00 0.00 0.00 0.00 0.00 0.00 0.00 0.00 0.00 0.00 0.00 0.00 0.00 0.00 0.00 0.00 0.01 0.01 0.01 0.01 0.01 0.01 0.01 0.03 0.05 0.05 0.06 0.09 0.11 0.12 0.11 0.08 0.06 0.06 0.06 0.06 0.07 0.06 0.06 0.06 0.08 0.06 0.06 0.08 0.09 0.11 0.08 0.05
0.00 0.00 0.00 0.00 0.00 0.00 0.00 0.00 0.00 0.00 0.00 0.00 0.00 0.00 0.00 0.00 0.00 0.01 0.01 0.01 0.01 0.01 0.02 0.03 0.04 0.06 0.07 0.08 0.10 0.10 0.09 0.10 0.07 0.05 0.04 0.06 0.07 0.07 0.06 0.07 0.06 0.07 0.06 0.08 0.07 0.07 0.08 0.09 0.08
0.00 0.00 0.00 0.00 0.00 0.00 0.00 0.00 0.00 0.00 0.00 0.00 0.00 0.00 0.00 0.00 0.00 0.01 0.01 0.01 0.02 0.03 0.03 0.04 0.06 0.07 0.06 0.07 0.09 0.11 0.08 0.07 0.07 0.06 0.05 0.06 0.08 0.07 0.06 0.06 0.07 0.06 0.05 0.07 0.07 0.08 0.06 0.05 0.07
0.00 0.00 0.00 0.00 0.00 0.00 0.00 0.00 0.00 0.00 0.00 0.00 0.00 0.00 0.00 0.00 0.00 0.00 0.01 0.01 0.02 0.03 0.04 0.05 0.06 0.08 0.07 0.08 0.10 0.09 0.09 0.09 0.07 0.06 0.06 0.06 0.07 0.06 0.05 0.05 0.06 0.05 0.04 0.06 0.06 0.06 0.06 0.05 0.05
0.00 0.00 0.00 0.00 0.00 0.00 0.00 0.00 0.00 0.00 0.00 0.00 0.00 0.00 0.00 0.00 0.00 0.00 0.01 0.01 0.02 0.03 0.04 0.04 0.05 0.08 0.07 0.08 0.09 0.07 0.07 0.09 0.07 0.06 0.05 0.05 0.04 0.04 0.05 0.04 0.05 0.04 0.04 0.04 0.04 0.04 0.04 0.04 0.04
0.00 0.00 0.00 0.00 0.00 0.00 0.00 0.00 0.00 0.00 0.00 0.00 0.00 0.00 0.00 0.00 0.00 0.00 0.01 0.01 0.02 0.03 0.04 0.04 0.04 0.07 0.07 0.08 0.08 0.07 0.06 0.07 0.07 0.06 0.05 0.04 0.04 0.04 0.04 0.05 0.05 0.04 0.03 0.04 0.04 0.04 0.04 0.04 0.04
0.00 0.00 0.00 0.00 0.00 0.00 0.00 0.00 0.00 0.00 0.00 0.00 0.00 0.00 0.00 0.00 0.00 0.00 0.00 0.00 0.01 0.02 0.03 0.03 0.04 0.07 0.07 0.06 0.06 0.06 0.05 0.06 0.07 0.06 0.04 0.05 0.05 0.04 0.04 0.04 0.05 0.04 0.03 0.03 0.05 0.04 0.04 0.03 0.03
0.00 0.00 0.00 0.00 0.00 0.00 0.00 0.00 0.00 0.00 0.00 0.00 0.00 0.00 0.00 0.00 0.00 0.00 0.00 0.01 0.01 0.02 0.02 0.03 0.03 0.04 0.05 0.05 0.05 0.05 0.05 0.06 0.08 0.06 0.05 0.04 0.04 0.04 0.04 0.04 0.04 0.05 0.04 0.04 0.04 0.04 0.03 0.03 0.02
0.00 0.00 0.00 0.00 0.00 0.00 0.00 0.00 0.00 0.00 0.00 0.00 0.00 0.00 0.00 0.00 0.00 0.00 0.01 0.01 0.01 0.02 0.02 0.02 0.02 0.02 0.03 0.04 0.04 0.03 0.05 0.08 0.09 0.07 0.04 0.04 0.05 0.05 0.04 0.06 0.06 0.05 0.05 0.05 0.04 0.03 0.03 0.02 0.02
0.00 0.00 0.00 0.00 0.00 0.00 0.00 0.00 0.00 0.00 0.00 0.00 0.00 0.00 0.00 0.01 0.00 0.00 0.01 0.01 0.01 0.01 0.01 0.01 0.01 0.01 0.02 0.03 0.04 0.03 0.04 0.06 0.06 0.06 0.05 0.04 0.04 0.05 0.04 0.05 0.05 0.05 0.05 0.05 0.05 0.04 0.03 0.02 0.02
MSLP
1007.89 1008.28 1008.68 1009.00 1009.16 1009.13 1008.93 1008.62 1008.29 1008.05 1007.96 1008.04 1008.28 1008.60 1008.93 1009.20 1009.36 1009.43 1009.43 1009.44 1009.54 1009.75 1010.12 1010.61 1011.17 1011.70 1012.16 1012.48 1012.65 1012.70 1012.70 1012.69 1012.74 1012.87 1013.09 1013.35 1013.63 1013.86 1014.02 1014.10 1014.12 1014.13 1014.15 1014.23 1014.37 1014.58 1014.81 1015.02 1015.19
1007.95 1008.40 1008.83 1009.14 1009.26 1009.15 1008.86 1008.45 1008.03 1007.71 1007.55 1007.59 1007.79 1008.10 1008.43 1008.72 1008.91 1009.02 1009.08 1009.15 1009.32 1009.61 1010.06 1010.62 1011.24 1011.84 1012.34 1012.70 1012.91 1013.00 1013.02 1013.04 1013.11 1013.26 1013.48 1013.74 1013.99 1014.19 1014.31 1014.34 1014.32 1014.29 1014.29 1014.37 1014.53 1014.77 1015.02 1015.26 1015.44
1008.01 1008.50 1008.93 1009.21 1009.27 1009.09 1008.72 1008.25 1007.78 1007.41 1007.22 1007.24 1007.44 1007.74 1008.08 1008.38 1008.60 1008.73 1008.83 1008.95 1009.16 1009.51 1010.02 1010.64 1011.32 1011.97 1012.52 1012.93 1013.19 1013.32 1013.38 1013.43 1013.52 1013.69 1013.91 1014.15 1014.37 1014.53 1014.60 1014.60 1014.54 1014.49 1014.49 1014.58 1014.76 1015.01 1015.29 1015.54 1015.71
1008.09 1008.56 1008.96 1009.19 1009.19 1008.96 1008.55 1008.04 1007.56 1007.19 1007.02 1007.05 1007.26 1007.58 1007.93 1008.23 1008.46 1008.60 1008.72 1008.86 1009.10 1009.48 1010.02 1010.67 1011.39 1012.08 1012.67 1013.12 1013.42 1013.60 1013.71 1013.81 1013.93 1014.11 1014.34 1014.57 1014.77 1014.90 1014.94 1014.91 1014.84 1014.78 1014.79 1014.89 1015.08 1015.34 1015.62 1015.86 1016.02
1008.17 1008.61 1008.94 1009.10 1009.03 1008.76 1008.33 1007.83 1007.37 1007.06 1006.93 1007.01 1007.25 1007.60 1007.96 1008.27 1008.50 1008.64 1008.75 1008.90 1009.14 1009.52 1010.06 1010.72 1011.44 1012.14 1012.75 1013.23 1013.58 1013.80 1013.96 1014.10 1014.27 1014.48 1014.71 1014.95 1015.14 1015.26 1015.30 1015.26 1015.20 1015.16 1015.18 1015.29 1015.48 1015.74 1016.00 1016.21 1016.34
1008.27 1008.63 1008.87 1008.94 1008.82 1008.51 1008.08 1007.62 1007.22 1006.97 1006.92 1007.07 1007.36 1007.75 1008.13 1008.45 1008.68 1008.82 1008.93 1009.06 1009.28 1009.64 1010.15 1010.77 1011.47 1012.15 1012.75 1013.25 1013.61 1013.88 1014.08 1014.27 1014.48 1014.72 1014.98 1015.24 1015.45 1015.58 1015.64 1015.63 1015.59 1015.57 1015.61 1015.72 1015.91 1016.14 1016.37 1016.54 1016.62
1008.36 1008.63 1008.77 1008.74 1008.55 1008.22 1007.80 1007.39 1007.06 1006.90 1006.94 1007.16 1007.52 1007.94 1008.36 1008.70 1008.94 1009.09 1009.19 1009.31 1009.51 1009.83 1010.29 1010.86 1011.49 1012.12 1012.69 1013.17 1013.54 1013.82 1014.06 1014.29 1014.54 1014.83 1015.13 1015.42 1015.66 1015.83 1015.92 1015.95 1015.94 1015.95 1016.01 1016.13 1016.30 1016.50 1016.67 1016.79 1016.82
1008.45 1008.60 1008.63 1008.51 1008.25 1007.89 1007.49 1007.12 1006.86 1006.79 1006.90 1007.20 1007.62 1008.10 1008.56 1008.94 1009.21 1009.38 1009.50 1009.62 1009.80 1010.08 1010.48 1010.98 1011.54 1012.10 1012.61 1013.05 1013.40 1013.68 1013.94 1014.20 1014.49 1014.81 1015.16 1015.49 1015.77 1015.98 1016.12 1016.18 1016.22 1016.25 1016.32 1016.43 1016.58 1016.74 1016.87 1016.94 1016.93
1008.49 1008.54 1008.46 1008.25 1007.93 1007.54 1007.14 1006.81 1006.61 1006.60 1006.78 1007.14 1007.62 1008.15 1008.66 1009.09 1009.41 1009.63 1009.79 1009.93 1010.12 1010.38 1010.74 1011.17 1011.65 1012.13 1012.57 1012.95 1013.27 1013.54 1013.80 1014.07 1014.39 1014.74 1015.12 1015.48 1015.80 1016.05 1016.22 1016.32 1016.38 1016.44 1016.51 1016.61 1016.73 1016.86 1016.95 1016.98 1016.95
1008.48 1008.44 1008.27 1007.98 1007.61 1007.19 1006.79 1006.47 1006.31 1006.33 1006.56 1006.95 1007.48 1008.05 1008.62 1009.12 1009.52 1009.81 1010.04 1010.23 1010.44 1010.71 1011.04 1011.42 1011.83 1012.24 1012.61 1012.93 1013.21 1013.45 1013.70 1013.98 1014.31 1014.68 1015.07 1015.45 1015.79 1016.06 1016.25 1016.37 1016.45 1016.51 1016.58 1016.67 1016.77 1016.87 1016.94 1016.97 1016.93
1008.41 1008.30 1008.06 1007.71 1007.29 1006.85 1006.44 1006.14 1005.98 1006.02 1006.26 1006.67 1007.22 1007.84 1008.46 1009.02 1009.50 1009.89 1010.20 1010.47 1010.74 1011.03 1011.36 1011.72 1012.09 1012.44 1012.76 1013.03 1013.26 1013.48 1013.71 1013.98 1014.30 1014.66 1015.05 1015.44 1015.78 1016.05 1016.25 1016.38 1016.46 1016.52 1016.58 1016.66 1016.76 1016.85 1016.92 1016.95 1016.95
1008.28 1008.12 1007.84 1007.47 1007.03 1006.57 1006.16 1005.84 1005.68 1005.71 1005.94 1006.35 1006.90 1007.54 1008.20 1008.83 1009.39 1009.87 1010.27 1010.63 1010.96 1011.30 1011.65 1012.01 1012.36 1012.69 1012.98 1013.22 1013.43 1013.62 1013.83 1014.08 1014.39 1014.73 1015.11 1015.47 1015.80 1016.07 1016.26 1016.38 1016.46 1016.52 1016.58 1016.66 1016.75 1016.85 1016.94 1017.01 1017.04
1008.11 1007.94 1007.65 1007.27 1006.83 1006.37 1005.96 1005.64 1005.46 1005.46 1005.66 1006.05 1006.58 1007.22 1007.90 1008.57 1009.20 1009.75 1010.24 1010.68 1011.09 1011.48 1011.86 1012.24 1012.60 1012.93 1013.21 1013.45 1013.65 1013.83 1014.03 1014.26 1014.54 1014.86 1015.21 1015.56 1015.86 1016.12 1016.30 1016.42 1016.50 1016.56 1016.62 1016.70 1016.81 1016.93 1017.06 1017.16 1017.24
1007.95 1007.78 1007.51 1007.15 1006.73 1006.29 1005.89 1005.56 1005.36 1005.34 1005.49 1005.84 1006.33 1006.95 1007.62 1008.31 1008.96 1009.57 1010.11 1010.61 1011.07 1011.51 1011.93 1012.35 1012.73 1013.08 1013.39 1013.64 1013.85 1014.04 1014.23 1014.45 1014.71 1015.01 1015.33 1015.66 1015.95 1016.20 1016.38 1016.51 1016.59 1016.66 1016.73 1016.83 1016.96 1017.12 1017.28 1017.43 1017.55
1007.82 1007.67 1007.43 1007.11 1006.73 1006.33 1005.95 1005.62 1005.40 1005.34 1005.45 1005.73 1006.18 1006.74 1007.39 1008.05 1008.71 1009.33 1009.89 1010.41 1010.90 1011.37 1011.83 1012.28 1012.70 1013.09 1013.43 1013.72 1013.96 1014.17 1014.37 1014.59 1014.84 1015.12 1015.42 1015.73 1016.02 1016.28 1016.47 1016.62 1016.73 1016.82 1016.92 1017.04 1017.19 1017.38 1017.57 1017.76 1017.92
1007.74 1007.62 1007.43 1007.16 1006.84 1006.48 1006.12 1005.80 1005.56 1005.46 1005.51 1005.73 1006.10 1006.60 1007.19 1007.82 1008.44 1009.04 1009.59 1010.10 1010.60 1011.08 1011.55 1012.03 1012.49 1012.93 1013.32 1013.66 1013.94 1014.19 1014.41 1014.63 1014.87 1015.14 1015.44 1015.75 1016.05 1016.32 1016.55 1016.74 1016.88 1017.01 1017.13 1017.28 1017.46 1017.66 1017.88 1018.09 1018.28
1007.71 1007.63 1007.49 1007.29 1007.03 1006.72 1006.38 1006.06 1005.80 1005.64 1005.62 1005.77 1006.06 1006.49 1007.01 1007.58 1008.15 1008.70 1009.22 1009.71 1010.18 1010.65 1011.14 1011.63 1012.13 1012.62 1013.06 1013.46 1013.80 1014.08 1014.33 1014.56 1014.81 1015.07 1015.37 1015.69 1016.01 1016.32 1016.59 1016.82 1017.02 1017.18 1017.34 1017.51 1017.71 1017.92 1018.15 1018.37 1018.57
1007.71 1007.68 1007.61 1007.47 1007.27 1007.00 1006.68 1006.34 1006.04 1005.82 1005.72 1005.78 1005.99 1006.34 1006.79 1007.29 1007.81 1008.32 1008.80 1009.25 1009.70 1010.15 1010.64 1011.14 1011.67 1012.20 1012.70 1013.16 1013.55 1013.88 1014.16 1014.41 1014.66 1014.93 1015.23 1015.57 1015.91 1016.26 1016.58 1016.86 1017.11 1017.32 1017.51 1017.70 1017.89 1018.11 1018.33 1018.55 1018.75
1007.71 1007.74 1007.74 1007.67 1007.52 1007.28 1006.97 1006.60 1006.24 1005.93 1005.74 1005.70 1005.83 1006.09 1006.48 1006.93 1007.41 1007.89 1008.33 1008.76 1009.19 1009.63 1010.10 1010.62 1011.18 1011.74 1012.29 1012.80 1013.25 1013.63 1013.94 1014.22 1014.48 1014.75 1015.06 1015.40 1015.77 1016.15 1016.52 1016.85 1017.15 1017.39 1017.61 1017.80 1018.00 1018.20 1018.41 1018.62 1018.81
1007.69 1007.78 1007.86 1007.86 1007.76 1007.54 1007.21 1006.79 1006.34 1005.94 1005.64 1005.49 1005.52 1005.72 1006.05 1006.47 1006.93 1007.39 1007.83 1008.26 1008.67 1009.10 1009.58 1010.10 1010.67 1011.27 1011.87 1012.43 1012.93 1013.36 1013.72 1014.02 1014.29 1014.57 1014.88 1015.23 1015.62 1016.02 1016.43 1016.80 1017.13 1017.41 1017.64 1017.84 1018.02 1018.20 1018.39 1018.59 1018.77
1007.60 1007.78 1007.94 1008.02 1007.97 1007.76 1007.39 1006.90 1006.35 1005.82 1005.40 1005.14 1005.07 1005.20 1005.50 1005.90 1006.37 1006.85 1007.30 1007.74 1008.16 1008.59 1009.06 1009.59 1010.17 1010.80 1011.43 1012.05 1012.60 1013.08 1013.48 1013.82 1014.12 1014.41 1014.72 1015.07 1015.47 1015.89 1016.31 1016.71 1017.07 1017.38 1017.62 1017.82 1017.99 1018.15 1018.32 1018.50 1018.68
1007.43 1007.72 1007.98 1008.14 1008.13 1007.92 1007.50 1006.93 1006.26 1005.60 1005.04 1004.66 1004.51 1004.57 1004.84 1005.25 1005.74 1006.25 1006.74 1007.20 1007.64 1008.07 1008.54 1009.06 1009.65 1010.29 1010.95 1011.61 1012.22 1012.76 1013.21 1013.60 1013.93 1014.24 1014.56 1014.92 1015.31 1015.74 1016.18 1016.60 1016.99 1017.31 1017.57 1017.78 1017.94 1018.09 1018.24 1018.40 1018.57
1007.20 1007.60 1007.96 1008.20 1008.23 1008.02 1007.56 1006.90 1006.12 1005.32 1004.63 1004.14 1003.89 1003.90 1004.14 1004.56 1005.08 1005.64 1006.17 1006.65 1007.10 1007.53 1007.98 1008.48 1009.05 1009.69 1010.38 1011.07 1011.74 1012.34 1012.87 1013.31 1013.69 1014.04 1014.38 1014.74 1015.14 1015.57 1016.02 1016.46 1016.87 1017.22 1017.51 1017.73 1017.90 1018.04 1018.18 1018.32 1018.48
1006.92 1007.42 1007.88 1008.19 1008.27 1008.07 1007.57 1006.83 1005.95 1005.03 1004.22 1003.62 1003.29 1003.25 1003.47 1003.89 1004.44 1005.03 1005.58 1006.09 1006.53 1006.94 1007.35 1007.82 1008.36 1008.98 1009.68 1010.40 1011.13 1011.80 1012.41 1012.93 1013.38 1013.77 1014.14 1014.53 1014.93 1015.37 1015.83 1016.30 1016.73 1017.12 1017.44 1017.69 1017.88 1018.03 1018.16 1018.29 1018.44
1006.59 1007.18 1007.72 1008.10 1008.23 1008.03 1007.52 1006.73 1005.77 1004.76 1003.86 1003.17 1002.77 1002.68 1002.88 1003.31 1003.87 1004.47 1005.03 1005.53 1005.95 1006.32 1006.68 1007.09 1007.58 1008.17 1008.86 1009.61 1010.39 1011.14 1011.83 1012.44 1012.97 1013.42 1013.84 1014.25 1014.68 1015.13 1015.61 1016.09 1016.56 1016.99 1017.35 1017.65 1017.88 1018.05 1018.19 1018.31 1018.44
1006.22 1006.87 1007.47 1007.91 1008.07 1007.90 1007.38 1006.57 1005.57 1004.52 1003.55 1002.81 1002.36 1002.24 1002.43 1002.85 1003.40 1004.00 1004.56 1005.03 1005.41 1005.72 1006.01 1006.35 1006.78 1007.33 1008.00 1008.77 1009.59 1010.41 1011.19 1011.89 1012.49 1013.02 1013.49 1013.94 1014.39 1014.86 1015.35 1015.87 1016.37 1016.84 1017.26 1017.61 1017.88 1018.09 1018.24 1018.37 1018.48
1005.81 1006.48 1007.12 1007.58 1007.77 1007.63 1007.13 1006.33 1005.34 1004.28 1003.31 1002.55 1002.09 1001.96 1002.13 1002.54 1003.08 1003.66 1004.20 1004.63 1004.96 1005.20 1005.42 1005.68 1006.05 1006.55 1007.20 1007.97 1008.83 1009.71 1010.56 1011.34 1012.03 1012.62 1013.15 1013.63 1014.10 1014.59 1015.10 1015.64 1016.18 1016.69 1017.16 1017.57 1017.89 1018.13 1018.30 1018.43 1018.54
1005.38 1006.02 1006.64 1007.10 1007.31 1007.19 1006.73 1005.97 1005.02 1004.01 1003.08 1002.35 1001.92 1001.80 1001.97 1002.38 1002.91 1003.48 1003.98 1004.38 1004.66 1004.84 1005.00 1005.20 1005.50 1005.96 1006.58 1007.35 1008.22 1009.14 1010.05 1010.90 1011.65 1012.30 1012.87 1013.38 1013.87 1014.37 1014.89 1015.44 1016.01 1016.56 1017.07 1017.52 1017.88 1018.16 1018.36 1018.50 1018.59
1004.92 1005.49 1006.04 1006.47 1006.66 1006.56 1006.14 1005.46 1004.59 1003.67 1002.83 1002.18 1001.80 1001.72 1001.93 1002.34 1002.88 1003.43 1003.92 1004.29 1004.54 1004.69 1004.81 1004.96 1005.23 1005.64 1006.24 1006.99 1007.87 1008.81 1009.75 1010.63 1011.42 1012.11 1012.71 1013.24 1013.74 1014.24 1014.76 1015.31 1015.89 1016.45 1016.99 1017.47 1017.87 1018.17 1018.39 1018.53 1018.63
1004.45 1004.90 1005.36 1005.70 1005.85 1005.75 1005.38 1004.78 1004.03 1003.23 1002.50 1001.97 1001.68 1001.68 1001.93 1002.37 1002.92 1003.48 1003.97 1004.35 1004.59 1004.74 1004.85 1004.99 1005.24 1005.63 1006.20 1006.94 1007.80 1008.73 1009.67 1010.57 1011.37 1012.07 1012.68 1013.21 1013.71 1014.20 1014.71 1015.26 1015.83 1016.40 1016.94 1017.43 1017.84 1018.16 1018.39 1018.53 1018.63
Thickness
5825 5830 5832 5827 5817 5814 5807 5812 5819 5817 5819 5826 5826 5820 5813 5806 5798 5786 5803 5811 5807 5800 5791 5783 5780 5778 5776 5774 5773 5772 5771 5770 5768 5768 5767 5765 5764 5763 5762 5761 5760 5759 5758 5757 5756 5755 5753 5752 5751
5834 5832 5827 5824 5814 5803 5802 5816 5816 5818 5824 5827 5824 5819 5812 5805 5806 5802 5805 5807 5805 5799 5791 5785 5778 5776 5774 5773 5771 5770 5768 5767 5766 5766 5765 5763 5762 5761 5760 5759 5758 5757 5756 5755 5754 5752 5751 5750 5749
5833 5832 5824 5821 5812 5808 5805 5817 5819 5823 5828 5825 5818 5818 5810 5802 5802 5803 5807 5806 5803 5797 5791 5782 5776 5774 5772 5771 5769 5768 5766 5765 5764 5763 5762 5761 5760 5759 5758 5757 5756 5755 5754 5753 5752 5750 5749 5748 5747
5831 5826 5823 5816 5810 5816 5819 5823 5825 5821 5823 5825 5819 5810 5808 5808 5806 5808 5807 5805 5801 5796 5790 5780 5775 5772 5770 5768 5767 5765 5764 5763 5762 5761 5760 5759 5758 5757 5756 5755 5754 5753 5752 5750 5749 5748 5747 5745 5745
5830 5823 5813 5811 5812 5819 5826 5829 5829 5821 5819 5821 5819 5806 5799 5805 5810 5808 5805 5803 5799 5796 5789 5779 5773 5771 5768 5767 5765 5764 5762 5761 5760 5759 5758 5757 5756 5755 5754 5753 5752 5751 5749 5748 5747 5746 5745 5744 5743
5822 5820 5809 5808 5810 5818 5827 5832 5829 5824 5821 5820 5816 5806 5796 5804 5804 5803 5804 5801 5800 5795 5789 5778 5771 5769 5767 5765 5763 5762 5761 5759 5758 5757 5756 5755 5754 5753 5752 5751 5750 5748 5747 5746 5745 5744 5743 5742 5741
5817 5815 5812 5813 5810 5814 5823 5833 5828 5824 5818 5820 5821 5805 5794 5798 5802 5803 5800 5799 5797 5794 5787 5779 5773 5768 5765 5763 5761 5760 5759 5757 5756 5755 5754 5753 5752 5751 5750 5749 5748 5746 5745 5744 5743 5742 5741 5740 5740
5824 5817 5811 5813 5810 5813 5826 5831 5831 5826 5821 5827 5824 5807 5796 5797 5802 5800 5797 5795 5792 5789 5785 5780 5775 5770 5767 5763 5760 5758 5757 5756 5754 5753 5752 5751 5750 5749 5748 5747 5746 5744 5743 5742 5742 5741 5740 5739 5738
5818 5807 5808 5814 5814 5817 5827 5825 5829 5834 5824 5821 5823 5820 5815 5805 5801 5795 5789 5786 5784 5783 5782 5779 5775 5771 5769 5766 5760 5758 5755 5754 5753 5752 5751 5751 5753 5752 5749 5746 5744 5743 5742 5741 5740 5739 5739 5738 5737
5810 5805 5814 5823 5825 5824 5826 5825 5827 5824 5817 5813 5812 5813 5811 5802 5797 5790 5785 5782 5780 5778 5778 5778 5775 5771 5769 5767 5761 5759 5758 5755 5755 5754 5752 5752 5751 5751 5750 5743 5742 5741 5740 5739 5739 5738 5739 5740 5741
5810 5808 5817 5821 5826 5827 5825 5826 5831 5823 5815 5818 5813 5807 5804 5800 5795 5790 5787 5785 5781 5778 5776 5775 5772 5770 5769 5766 5762 5761 5759 5756 5755 5753 5752 5751 5751 5750 5749 5746 5743 5741 5741 5742 5739 5741 5743 5743 5741
5806 5811 5815 5819 5824 5823 5823 5825 5825 5825 5826 5833 5828 5817 5807 5801 5796 5792 5788 5785 5782 5777 5775 5773 5770 5767 5766 5765 5762 5760 5759 5757 5755 5752 5751 5751 5751 5749 5749 5746 5745 5744 5743 5742 5743 5741 5741 5740 5740
5801 5807 5814 5818 5821 5823 5823 5823 5823 5825 5834 5833 5826 5815 5808 5803 5799 5795 5791 5787 5782 5776 5774 5772 5768 5765 5763 5761 5760 5760 5758 5757 5755 5752 5750 5749 5750 5749 5748 5745 5744 5745 5744 5742 5742 5742 5740 5739 5738
5806 5808 5812 5816 5819 5820 5816 5820 5821 5825 5833 5826 5818 5812 5809 5805 5800 5794 5789 5784 5781 5777 5774 5771 5766 5763 5760 5758 5757 5757 5756 5754 5754 5752 5750 5748 5749 5747 5746 5744 5743 5744 5743 5743 5742 5741 5739 5739 5738
5806 5800 5805 5813 5815 5818 5816 5809 5817 5829 5828 5820 5816 5812 5808 5804 5799 5794 5790 5785 5781 5777 5774 5769 5765 5762 5758 5757 5756 5755 5754 5753 5753 5751 5748 5746 5747 5745 5745 5745 5743 5743 5741 5739 5739 5739 5739 5738 5738
5796 5792 5792 5808 5814 5816 5808 5802 5822 5829 5823 5816 5814 5810 5805 5801 5798 5795 5791 5785 5782 5778 5773 5768 5765 5761 5757 5756 5754 5755 5754 5752 5751 5750 5748 5745 5745 5743 5743 5744 5744 5741 5741 5741 5739 5740 5739 5738 5737
5785 5785 5792 5799 5811 5813 5807 5807 5821 5827 5821 5815 5812 5808 5804 5799 5796 5794 5791 5786 5782 5778 5773 5767 5765 5760 5757 5754 5752 5752 5750 5749 5749 5748 5747 5745 5744 5743 5743 5743 5742 5741 5742 5742 5742 5741 5740 5737 5735
5783 5789 5791 5793 5804 5806 5803 5809 5817 5822 5820 5816 5813 5809 5804 5799 5796 5795 5791 5786 5782 5777 5773 5768 5764 5760 5757 5754 5751 5750 5748 5747 5747 5747 5745 5744 5743 5742 5743 5742 5740 5741 5742 5741 5740 5738 5737 5736 5736
5790 5789 5787 5793 5802 5799 5799 5804 5812 5817 5816 5814 5812 5809 5805 5801 5801 5797 5791 5786 5781 5776 5771 5767 5763 5760 5756 5753 5751 5748 5746 5746 5746 5746 5744 5742 5743 5742 5741 5743 5740 5740 5741 5739 5739 5738 5736 5736 5736
5777 5777 5781 5786 5795 5794 5795 5799 5812 5814 5814 5816 5813 5810 5807 5802 5798 5794 5789 5785 5781 5776 5771 5766 5763 5760 5757 5755 5752 5750 5748 5747 5746 5745 5743 5742 5742 5741 5741 5741 5741 5740 5739 5737 5737 5736 5736 5737 5736
5769 5773 5777 5777 5784 5792 5789 5788 5800 5810 5814 5815 5816 5814 5811 5805 5799 5794 5789 5786 5782 5776 5772 5768 5764 5761 5757 5755 5751 5748 5746 5745 5744 5742 5742 5742 5742 5741 5741 5740 5741 5739 5740 5738 5736 5736 5733 5733 5735
5760 5776 5776 5773 5770 5776 5781 5775 5794 5804 5805 5808 5810 5812 5811 5808 5802 5797 5792 5787 5783 5778 5774 5770 5765 5761 5757 5754 5751 5747 5745 5743 5744 5744 5744 5743 5742 5741 5740 5739 5739 5738 5740 5738 5738 5738 5736 5733 5732
5768 5776 5771 5770 5769 5771 5777 5773 5792 5802 5798 5806 5810 5811 5811 5809 5805 5799 5795 5790 5785 5780 5775 5770 5765 5761 5758 5755 5751 5748 5747 5746 5746 5745 5744 5742 5742 5741 5741 5739 5738 5737 5738 5738 5737 5736 5735 5736 5733
5769 5765 5763 5765 5766 5751 5771 5770 5780 5800 5802 5809 5813 5813 5811 5809 5805 5800 5797 5792 5785 5781 5775 5770 5765 5760 5758 5755 5752 5749 5748 5746 5745 5743 5743 5742 5742 5742 5741 5740 5738 5738 5738 5736 5736 5735 5735 5735 5734
5760 5750 5737 5735 5739 5750 5777 5769 5783 5807 5812 5813 5813 5814 5813 5810 5803 5798 5794 5789 5784 5779 5774 5770 5765 5760 5759 5755 5752 5750 5748 5747 5745 5744 5743 5742 5743 5742 5741 5741 5739 5738 5736 5736 5736 5735 5736 5734 5732
5755 5756 5746 5737 5741 5759 5764 5764 5790 5808 5812 5814 5814 5814 5812 5808 5804 5799 5795 5790 5785 5780 5775 5770 5765 5761 5758 5755 5753 5751 5749 5748 5748 5745 5745 5743 5744 5744 5742 5740 5738 5737 5736 5736 5735 5736 5735 5733 5732
5750 5755 5772 5761 5761 5758 5764 5775 5791 5803 5803 5806 5807 5807 5807 5805 5803 5799 5795 5790 5786 5781 5776 5771 5765 5761 5758 5756 5753 5751 5750 5748 5748 5746 5745 5745 5743 5743 5741 5739 5738 5737 5736 5735 5734 5735 5733 5733 5733
5765 5762 5756 5749 5740 5742 5758 5764 5778 5789 5795 5801 5802 5803 5803 5803 5801 5798 5795 5790 5786 5782 5777 5772 5767 5762 5759 5757 5754 5753 5750 5748 5747 5746 5745 5744 5743 5742 5740 5739 5738 5736 5735 5734 5733 5733 5732 5731 5731
5749 5752 5754 5754 5758 5751 5749 5766 5799 5797 5800 5800 5802 5803 5802 5800 5799 5796 5793 5789 5785 5780 5775 5770 5765 5762 5759 5757 5754 5753 5750 5749 5747 5745 5744 5743 5742 5740 5738 5737 5736 5735 5734 5733 5732 5733 5732 5730 5730
5756 5755 5753 5743 5743 5756 5762 5772 5800 5801 5801 5801 5800 5800 5800 5799 5798 5794 5790 5785 5780 5776 5773 5769 5766 5762 5760 5757 5754 5751 5750 5748 5746 5745 5743 5742 5740 5739 5737 5736 5735 5734 5734 5733 5731 5730 5731 5729 5728